Location: Kellogg
(38.0159°N, 90.0546°W)
Time: 16:13:48
(UTC+00:00)

Courier 1B - Pass Details

Date: 12 September 2024
Orbit: 962 x 1208 km, 28.3° (Epoch: 07 October)

Event Time Altitude Azimuth Distance (km) Brightness Sun altitude
Rises 03:40:22 0° 258° (WSW) 4,101 11.1 -37.5°
Enters shadow 03:45:22 - 231° (SW) 3,168 10.2 -38.2°
Reaches altitude 10° 03:45:57 10° 227° (SW) 3,107 - -38.2°
Maximum altitude 03:48:01 11° 211° (SSW) 2,999 - -38.5°
Drops below altitude 10° 03:50:05 10° 195° (SSW) 3,072 - -38.8°
Sets 03:55:31 0° 163° (SSE) 3,972 - -39.5°
